Wind_Speed
12 16 17 15 14 15 15 14 13 12 12 12 11 11 11 10 9 7 7 8 9 10 12 13 11 9 8 7 8 8 6 4 5 3 0 3 4 4 4 4 3 1 1
13 14 15 14 15 14 14 13 12 11 11 10 9 9 8 6 7 7 6 7 7 9 10 10 9 9 8 8 8 7 9 10 10 9 7 4 2 2 2 3 3 2 3
12 14 14 14 15 15 15 14 13 11 10 10 8 7 6 6 5 5 6 6 7 6 7 8 8 8 8 8 8 9 11 10 11 11 7 8 4 4 3 2 2 3 3
12 15 15 14 15 17 17 17 16 14 13 11 10 9 7 6 6 5 3 3 4 6 6 8 8 7 7 8 9 9 11 9 13 16 5 7 5 3 3 2 3 4 4
14 15 14 15 17 18 19 19 17 18 16 15 13 13 11 9 6 5 4 4 4 5 5 5 6 6 7 7 8 9 9 5 6 8 8 4 2 4 4 4 6 7 6
16 15 16 17 18 18 19 18 18 18 17 17 17 16 14 12 12 11 8 6 6 6 6 6 6 6 5 6 8 6 5 5 5 5 7 5 5 6 5 7 9 9 9
15 15 17 17 18 17 17 16 17 18 17 17 17 17 16 15 14 13 13 10 10 9 8 8 7 5 4 5 4 4 4 7 8 11 6 5 2 4 7 7 6 10 10
15 16 17 16 16 16 15 16 15 15 15 16 17 16 16 15 13 11 12 12 11 10 9 8 6 2 1 1 3 5 5 7 13 15 4 4 1 6 8 8 8 7 10
13 15 15 14 15 15 15 15 15 13 14 15 15 16 16 16 14 14 14 14 11 10 8 9 9 7 4 3 5 6 6 5 11 14 10 11 3 7 9 10 9 9 11
12 12 14 12 13 15 14 14 13 12 12 13 13 15 11 11 14 14 16 14 12 8 7 6 12 8 11 10 7 7 4 2 16 5 8 7 7 6 8 9 10 11 12
10 12 11 12 12 14 13 12 12 12 11 12 14 13 10 9 15 17 15 13 12 8 6 6 9 8 18 14 11 8 10 8 5 8 6 3 7 7 9 12 13 15 16
8 10 10 11 12 12 11 11 10 11 12 12 14 14 13 13 19 13 11 9 12 9 9 11 12 16 12 12 8 9 11 10 12 13 12 16 12 11 10 10 11 13 14
8 8 10 9 9 10 9 9 10 12 12 12 14 15 11 15 15 13 8 10 16 5 20 17 10 9 7 11 5 11 6 11 16 18 19 14 11 11 12 11 11 12 13
8 7 8 8 8 9 10 12 13 13 13 15 11 10 15 20 14 7 9 10 18 18 20 12 21 14 7 14 9 11 11 12 16 13 16 15 15 15 14 14 13 12 13
7 7 8 7 8 9 12 15 15 14 15 16 12 13 17 16 10 11 8 14 14 15 15 15 9 7 13 18 11 12 12 10 11 13 12 16 17 16 17 18 19 20 19
7 6 7 6 7 8 12 15 16 15 16 16 15 13 13 10 11 10 10 14 23 30 21 21 5 5 7 10 9 12 11 11 11 14 15 14 16 18 20 22 23 24 23
7 6 5 4 5 7 10 14 16 16 16 15 15 13 13 13 13 12 16 21 24 30 24 17 8 6 2 8 11 9 10 12 10 12 16 14 16 17 19 21 23 24 26
6 5 6 3 3 6 9 12 15 16 15 15 14 13 13 13 15 16 22 24 29 28 27 22 11 8 7 9 7 10 12 16 17 21 19 20 18 13 15 20 23 24 25
6 5 5 4 3 5 9 10 14 15 15 14 14 13 13 15 17 18 25 24 25 21 21 25 26 19 11 8 10 14 17 21 34 24 27 25 34 25 23 29 24 24 25
8 6 6 6 4 4 7 8 11 15 15 15 14 14 13 14 17 19 23 25 28 20 18 19 21 17 15 15 15 21 25 30 32 25 30 33 37 28 35 31 29 28 29
9 8 7 7 5 3 5 8 9 13 15 15 16 17 13 14 13 16 20 22 21 25 19 20 17 19 19 18 21 22 25 26 29 27 30 34 36 30 34 33 34 35 35
10 9 8 8 7 5 4 5 8 11 13 15 16 16 13 13 12 16 18 19 21 23 31 22 22 21 21 19 18 19 21 29 36 32 36 35 34 35 32 31 31 33 36
12 10 9 8 7 7 5 3 6 9 12 13 15 16 14 10 11 13 16 19 22 25 28 27 27 27 22 22 22 21 24 28 27 34 32 35 39 42 37 44 30 39 37
12 12 10 8 7 8 5 2 2 6 9 10 12 14 12 7 9 11 16 18 23 27 29 28 27 24 25 24 25 29 34 35 33 32 38 38 40 43 45 43 42 41 37
11 11 12 11 9 9 7 4 2 3 6 8 9 12 11 8 6 10 14 17 20 22 24 25 26 28 28 25 29 31 37 38 38 38 36 40 45 47 45 43 40 40 32
13 10 13 13 11 10 8 6 4 1 2 5 7 10 10 10 5 9 12 15 18 20 23 24 25 27 27 28 32 34 37 38 39 38 40 43 47 48 46 42 35 33 29
Wind_Direction
75 71 77 74 78 77 75 78 81 85 85 85 81 73 69 69 70 72 64 54 53 51 56 68 74 77 78 71 63 57 54 41 34 36 166 197 194 185 169 186 192 220 254
71 68 73 72 70 69 69 71 73 75 80 78 73 73 69 73 77 71 66 47 61 56 56 64 65 66 69 58 48 39 17 3 351 322 286 259 232 194 201 204 207 256 275
70 72 70 67 64 65 67 71 75 76 75 71 65 66 70 72 67 63 61 57 59 52 44 46 49 44 39 42 37 20 6 4 359 336 293 241 228 228 227 254 303 293 287
69 69 65 65 66 66 66 65 65 67 66 67 70 70 65 64 63 63 61 47 36 26 25 26 26 27 21 12 5 1 7 15 17 27 64 182 197 218 258 276 286 279 270
74 71 70 69 66 66 65 68 70 72 72 72 71 66 61 59 65 68 54 30 21 19 3 356 351 353 353 345 343 4 19 27 29 46 79 127 292 308 319 291 279 274 267
79 79 77 73 71 67 67 65 66 69 71 72 72 70 70 68 62 63 65 59 47 42 35 33 36 26 15 13 15 11 18 5 347 14 77 54 17 348 342 308 269 261 269
85 83 79 77 75 71 66 67 69 71 68 69 65 60 63 62 59 63 69 71 71 68 65 60 51 36 30 30 360 339 345 1 328 295 167 92 0 327 326 326 288 261 267
89 86 82 81 79 73 71 69 73 67 63 61 52 42 43 49 50 60 63 58 50 43 39 34 25 358 306 333 338 344 349 3 332 314 63 237 9 321 316 318 308 278 264
94 91 88 86 81 77 72 71 71 69 60 58 48 39 33 33 35 41 47 49 56 62 63 52 32 11 14 341 320 3 4 336 292 353 307 298 21 302 307 309 298 289 280
100 101 98 88 81 78 74 74 74 69 64 58 53 50 40 62 62 48 53 52 49 41 33 46 47 65 53 22 360 36 23 18 322 12 358 308 300 314 312 305 292 285 282
111 106 101 92 81 78 77 73 69 65 59 64 62 56 50 71 71 60 56 41 32 40 36 61 48 14 88 77 48 18 48 28 343 324 34 289 4 327 312 293 292 291 288
122 109 100 93 84 81 76 66 57 49 52 65 68 64 46 51 60 63 65 49 38 65 64 95 85 41 56 77 339 56 38 0 341 352 359 22 2 344 330 323 313 301 296
124 112 99 87 87 85 75 60 55 44 49 59 66 79 82 62 65 61 53 38 42 296 61 65 75 106 69 41 36 43 345 356 355 357 2 1 350 338 332 325 318 311 303
125 112 93 86 87 85 77 67 53 45 54 60 74 83 109 84 69 59 356 12 51 35 25 40 48 31 43 93 19 8 7 2 7 6 346 347 341 335 326 311 298 295 299
131 110 93 81 84 79 80 71 57 50 49 56 62 50 70 60 62 53 27 25 5 9 18 357 41 42 4 17 28 15 4 1 349 339 341 329 326 327 316 310 303 297 296
134 117 97 87 71 74 75 71 61 55 46 47 53 65 73 63 59 56 27 7 11 18 353 321 344 306 19 22 38 24 19 4 345 332 336 329 322 317 315 311 304 300 295
150 132 104 99 76 76 65 67 63 54 42 40 44 51 60 60 58 48 40 34 38 45 28 8 302 224 43 4 5 6 354 347 338 335 326 310 314 312 314 308 305 301 296
165 143 118 112 88 81 59 60 63 58 50 40 40 52 63 61 67 59 49 55 51 47 37 36 49 131 85 37 20 1 353 346 341 342 334 317 307 299 315 315 307 301 295
187 160 134 131 117 84 66 60 60 62 57 48 43 50 63 68 68 56 50 53 45 40 58 66 76 82 70 50 17 0 351 344 343 2 333 291 340 344 342 327 323 313 305
191 181 168 152 131 81 64 60 62 65 57 51 49 51 67 77 68 53 50 48 41 49 55 78 77 64 39 21 5 353 354 347 348 338 356 339 339 355 319 318 329 324 313
198 196 185 170 149 114 57 65 62 64 60 49 46 48 70 80 70 58 49 45 44 55 50 61 55 44 26 9 7 0 350 347 346 350 335 338 334 338 329 329 326 317 310
200 206 192 180 166 149 89 61 60 57 57 51 42 44 59 77 79 57 44 40 29 30 54 43 38 35 30 14 10 7 358 353 345 348 342 342 336 336 337 329 313 303 302
199 207 192 192 183 171 138 80 58 58 54 48 42 43 45 70 68 54 40 28 29 26 29 33 29 23 15 9 7 3 3 360 354 343 346 344 343 344 342 331 317 314 319
204 203 188 190 190 188 156 150 54 65 54 47 42 40 38 59 60 47 39 29 23 22 21 23 21 17 13 12 5 7 3 359 359 359 350 349 345 341 337 324 312 326 324
204 210 194 186 194 186 163 200 239 71 51 42 42 39 37 40 60 36 32 29 26 20 19 19 16 14 9 6 8 9 4 358 356 357 354 350 343 342 332 320 335 328 333
202 204 204 191 196 196 184 207 247 283 26 49 47 40 34 29 44 33 21 23 18 17 16 15 11 12 9 7 10 6 2 359 358 358 356 350 348 342 323 336 335 335 334
Height
5890 5888 5888 5891 5891 5890 5890 5889 5889 5889 5888 5888 5888 5888 5887 5888 5888 5888 5889 5889 5890 5889 5889 5889 5890 5890 5889 5890 5890 5890 5890 5892 5891 5892 5892 5892 5893 5894 5893 5894 5894 5895 5894
5891 5891 5891 5892 5892 5892 5892 5891 5891 5891 5890 5890 5889 5889 5889 5889 5889 5889 5890 5891 5891 5891 5891 5891 5892 5892 5892 5892 5891 5891 5891 5891 5891 5891 5891 5891 5891 5891 5892 5893 5893 5894 5894
5893 5893 5894 5894 5894 5894 5894 5893 5892 5892 5891 5891 5890 5890 5891 5890 5890 5890 5890 5890 5891 5891 5891 5892 5893 5893 5893 5893 5893 5893 5893 5892 5892 5890 5889 5890 5891 5892 5892 5892 5893 5893 5893
5895 5895 5896 5896 5896 5896 5895 5895 5895 5894 5893 5892 5892 5891 5890 5890 5890 5891 5891 5891 5892 5892 5892 5893 5893 5894 5893 5892 5892 5893 5894 5892 5889 5886 5887 5890 5890 5891 5891 5891 5892 5893 5892
5898 5898 5898 5898 5898 5898 5898 5897 5897 5896 5895 5895 5893 5892 5891 5891 5891 5891 5893 5894 5893 5893 5894 5894 5894 5894 5894 5893 5893 5894 5891 5887 5885 5887 5886 5888 5891 5891 5890 5888 5890 5892 5891
5901 5901 5901 5901 5901 5902 5901 5900 5899 5898 5898 5897 5895 5895 5894 5894 5894 5894 5894 5893 5894 5896 5895 5895 5895 5894 5894 5893 5894 5892 5890 5887 5887 5886 5884 5887 5889 5891 5888 5888 5888 5890 5890
5904 5904 5904 5905 5905 5904 5905 5903 5902 5902 5901 5899 5898 5898 5897 5896 5896 5896 5895 5895 5896 5895 5895 5895 5894 5893 5892 5893 5891 5892 5891 5893 5889 5883 5879 5883 5886 5888 5888 5887 5888 5889 5890
5907 5907 5908 5909 5909 5909 5907 5907 5905 5905 5904 5903 5902 5901 5900 5900 5899 5897 5898 5899 5899 5897 5896 5894 5893 5890 5890 5889 5888 5892 5894 5894 5886 5877 5877 5887 5885 5888 5888 5885 5887 5888 5888
5910 5911 5912 5913 5912 5912 5911 5911 5909 5908 5907 5906 5905 5904 5904 5903 5901 5901 5901 5900 5898 5896 5894 5894 5891 5891 5891 5890 5888 5892 5894 5892 5887 5889 5891 5891 5881 5887 5886 5884 5886 5886 5887
5913 5915 5916 5916 5916 5914 5914 5914 5913 5912 5911 5909 5908 5907 5902 5898 5898 5904 5904 5901 5901 5899 5897 5894 5893 5890 5892 5895 5890 5888 5890 5892 5894 5891 5891 5889 5888 5885 5884 5884 5885 5884 5884
5917 5919 5920 5920 5919 5917 5917 5917 5916 5915 5913 5911 5910 5908 5904 5902 5901 5904 5903 5899 5897 5896 5894 5894 5894 5873 5879 5893 5889 5891 5889 5889 5885 5888 5886 5891 5882 5883 5883 5884 5884 5883 5882
5921 5922 5923 5923 5922 5921 5920 5920 5919 5917 5915 5912 5911 5910 5905 5905 5902 5905 5906 5900 5897 5892 5890 5899 5896 5894 5896 5894 5885 5891 5895 5891 5890 5889 5887 5880 5883 5884 5884 5883 5882 5882 5881
5923 5925 5925 5925 5925 5924 5923 5923 5922 5920 5917 5914 5916 5915 5912 5910 5909 5911 5906 5898 5899 5887 5887 5898 5894 5902 5899 5892 5895 5893 5897 5894 5884 5881 5881 5883 5885 5883 5881 5881 5880 5879 5878
5925 5927 5927 5927 5927 5926 5926 5925 5925 5922 5919 5918 5917 5914 5909 5907 5917 5911 5901 5870 5890 5902 5899 5906 5896 5897 5894 5884 5896 5893 5894 5894 5891 5891 5889 5888 5885 5882 5881 5879 5877 5876 5874
5927 5928 5929 5929 5929 5928 5928 5928 5928 5925 5922 5921 5919 5915 5913 5913 5919 5915 5913 5907 5902 5908 5902 5897 5898 5900 5895 5895 5900 5898 5896 5895 5893 5890 5889 5886 5883 5882 5881 5879 5876 5873 5871
5928 5930 5930 5930 5930 5930 5930 5930 5930 5929 5926 5924 5924 5922 5923 5925 5919 5917 5916 5914 5910 5905 5904 5899 5900 5904 5908 5903 5901 5900 5898 5894 5892 5890 5888 5886 5883 5879 5877 5877 5874 5871 5868
5929 5931 5932 5932 5932 5932 5932 5932 5932 5931 5929 5927 5926 5925 5925 5924 5923 5920 5919 5919 5917 5913 5909 5905 5902 5906 5907 5905 5905 5901 5898 5896 5892 5890 5886 5883 5880 5878 5874 5870 5868 5867 5864
5930 5932 5933 5934 5933 5934 5934 5934 5934 5934 5932 5930 5928 5927 5927 5926 5925 5925 5923 5921 5922 5919 5915 5907 5901 5903 5907 5908 5906 5903 5899 5897 5895 5892 5885 5877 5870 5869 5870 5867 5864 5860 5857
5932 5933 5934 5935 5935 5936 5936 5937 5936 5936 5936 5934 5931 5930 5929 5929 5928 5927 5927 5926 5923 5918 5914 5910 5909 5911 5912 5912 5909 5904 5900 5896 5893 5891 5877 5844 5861 5866 5866 5863 5858 5853 5851
5932 5933 5936 5936 5937 5938 5938 5938 5938 5938 5938 5936 5934 5933 5932 5931 5931 5931 5930 5928 5923 5920 5918 5914 5912 5912 5912 5911 5907 5901 5896 5890 5886 5871 5871 5867 5862 5863 5862 5858 5849 5845 5844
5932 5934 5936 5938 5938 5939 5939 5939 5940 5940 5940 5939 5937 5935 5934 5933 5933 5933 5932 5931 5927 5928 5925 5920 5917 5910 5908 5910 5907 5902 5895 5889 5883 5881 5878 5870 5864 5862 5857 5848 5842 5838 5834
5932 5935 5937 5939 5939 5940 5941 5941 5941 5941 5941 5940 5939 5938 5936 5935 5936 5936 5934 5933 5928 5926 5927 5922 5917 5912 5910 5910 5908 5905 5900 5892 5881 5879 5870 5867 5862 5856 5850 5844 5838 5831 5823
5931 5934 5937 5940 5941 5942 5943 5943 5942 5943 5943 5942 5941 5940 5938 5937 5937 5937 5935 5932 5931 5926 5922 5920 5915 5912 5912 5912 5909 5903 5900 5894 5887 5876 5872 5865 5855 5847 5842 5835 5816 5818 5812
5930 5933 5937 5940 5941 5943 5944 5944 5944 5944 5944 5944 5943 5942 5940 5939 5939 5938 5937 5934 5929 5925 5922 5920 5918 5917 5915 5913 5908 5901 5894 5888 5883 5879 5867 5861 5853 5846 5835 5825 5816 5810 5804
5929 5932 5936 5940 5942 5944 5945 5945 5945 5945 5945 5945 5944 5944 5942 5940 5940 5939 5938 5936 5934 5931 5928 5925 5921 5918 5916 5913 5906 5899 5892 5884 5877 5872 5867 5859 5849 5839 5827 5814 5810 5800 5797
5927 5931 5935 5938 5941 5944 5945 5946 5946 5946 5946 5946 5945 5945 5943 5941 5940 5939 5938 5937 5935 5933 5930 5927 5923 5920 5916 5911 5904 5899 5892 5884 5878 5872 5864 5855 5844 5831 5817 5811 5805 5796 5792